Temperature
21 22 21 21 20 20 20 20 20 20 19 19 19 19 19 19 19 19 19 19 19 18 18 18 18 18 18 18 18 18 18 18 18 18 18 18 18 17 17 17 17 17 17
21 22 21 21 20 20 20 20 19 19 19 19 19 19 19 19 19 19 18 18 18 18 18 18 18 18 18 18 18 18 18 18 18 18 18 18 17 17 17 17 17 17 17
22 22 21 21 20 20 20 19 19 19 19 19 19 19 19 19 19 18 18 18 18 18 18 18 18 18 18 18 18 18 18 18 18 17 17 17 17 17 17 17 17 17 17
22 22 21 21 20 20 20 19 19 19 19 19 19 19 19 19 18 18 18 18 18 18 18 18 18 18 18 18 18 18 18 17 17 17 17 17 17 17 17 17 17 17 17
21 21 22 21 21 20 20 19 19 19 19 19 19 18 18 18 18 18 18 18 18 18 18 18 18 18 18 18 18 18 17 17 17 17 17 17 17 17 17 17 17 17 17
21 21 21 21 21 20 20 19 19 19 19 19 18 18 18 18 18 18 18 18 18 18 18 18 18 18 18 18 18 18 17 17 17 17 17 17 17 17 17 17 17 17 17
21 21 21 21 21 20 20 19 19 19 19 19 18 18 18 18 18 18 18 18 18 18 18 18 18 18 18 18 18 18 17 17 17 17 17 17 17 17 17 17 17 17 17
21 21 21 21 20 20 20 19 19 19 19 19 18 18 18 18 18 18 18 18 18 18 18 18 18 18 18 18 18 18 18 17 17 17 17 18 17 17 17 17 17 17 17
21 21 21 21 20 20 19 19 19 19 19 18 18 18 18 18 18 18 18 18 18 18 18 18 18 18 18 18 18 18 18 18 17 17 17 18 17 17 17 17 17 17 17
21 20 21 20 20 20 19 19 19 19 19 18 18 18 18 18 18 18 18 18 18 18 18 18 18 18 18 18 18 18 18 18 17 17 18 18 18 17 17 17 17 17 17
21 20 20 19 19 19 19 19 19 19 18 18 18 18 18 18 18 18 18 18 18 18 18 18 18 18 18 18 18 18 18 18 18 18 18 18 18 17 17 17 17 17 17
21 20 19 19 19 18 18 19 19 18 18 18 18 18 18 18 17 18 18 18 18 18 18 18 18 18 18 18 18 18 18 18 18 18 18 18 18 17 17 17 17 17 17
21 20 20 19 19 19 18 19 18 18 18 18 18 18 18 18 18 18 18 18 18 18 18 18 18 18 17 18 18 18 18 18 18 18 18 18 18 18 17 17 17 17 17
21 20 20 19 19 19 19 18 18 18 18 18 18 18 18 18 18 18 18 18 18 18 18 18 18 17 17 18 18 18 18 18 18 18 18 18 18 18 17 17 17 17 17
21 20 20 19 19 19 19 19 18 18 18 18 18 18 18 18 18 18 18 18 18 18 18 18 18 17 17 18 18 18 18 18 17 18 18 18 18 18 18 17 17 17 17
20 20 19 19 19 19 19 18 18 18 18 18 18 18 18 18 18 18 18 18 18 18 18 18 18 18 18 18 18 18 18 18 17 17 18 18 18 18 18 17 17 17 17
20 19 19 19 19 19 19 19 18 18 18 18 18 18 18 18 18 18 18 18 18 18 18 18 18 18 18 18 18 18 18 18 17 17 17 17 17 17 17 17 17 17 17
20 19 19 18 18 18 18 18 18 18 18 18 18 18 18 18 18 18 18 18 18 18 18 18 18 18 18 18 18 18 18 18 17 17 17 17 17 17 17 17 17 17 17
19 19 18 18 18 18 18 18 18 18 18 18 18 18 18 18 18 18 18 18 18 18 18 18 18 18 18 18 18 18 18 18 18 17 17 17 17 17 17 17 17 17 17
19 19 18 18 18 18 18 18 18 18 18 18 18 18 18 18 18 18 18 18 18 18 18 18 18 18 18 18 18 18 18 18 18 17 17 17 17 17 17 17 17 17 17
19 18 18 18 18 18 18 18 18 18 18 18 18 18 18 17 18 18 18 18 18 18 18 17 18 18 18 18 18 18 18 18 18 18 18 17 17 17 17 17 17 17 17
19 18 18 18 18 18 18 18 18 18 18 18 18 17 17 17 18 18 18 18 18 18 17 17 17 17 18 18 18 18 18 18 18 18 18 18 18 17 17 17 17 17 17
19 18 18 18 18 18 18 18 18 17 17 18 17 17 17 17 17 18 18 18 18 18 17 17 17 18 18 18 18 18 18 18 18 18 18 18 18 17 17 17 17 17 17
19 18 18 18 18 18 18 18 18 18 18 18 18 18 17 17 17 17 17 17 17 17 17 17 17 17 18 18 18 18 18 18 18 18 18 18 18 18 18 17 17 17 17
19 18 18 18 18 18 18 18 18 18 18 18 17 17 17 17 17 17 17 17 17 17 17 17 17 17 17 18 18 18 18 18 18 18 18 18 18 18 18 18 18 17 17
19 19 18 18 18 18 18 18 18 18 18 18 17 17 17 18 18 17 17 17 17 17 17 17 17 17 17 17 18 18 18 18 18 18 18 18 18 18 18 18 18 17 17
Wind_Speed
18 17 18 17 16 16 16 17 16 16 16 16 15 15 15 15 15 15 15 15 14 14 14 14 14 15 15 16 16 16 17 18 19 20 20 19 18 17 16 18 19 18 18
21 19 19 18 17 17 17 17 16 16 16 15 15 14 14 14 14 14 14 14 14 14 14 15 15 15 16 15 15 15 15 16 17 19 19 18 17 16 16 17 18 17 18
21 19 19 18 18 17 17 17 16 16 16 15 14 14 13 13 13 13 13 13 14 14 15 15 15 16 16 15 14 14 13 14 15 17 18 16 16 18 19 19 19 18 17
21 19 19 19 18 18 18 17 17 16 15 15 14 13 13 12 12 13 13 13 13 14 15 15 15 15 15 14 12 11 11 10 11 12 13 16 16 17 17 17 17 17 17
19 19 20 20 19 18 18 17 17 16 15 15 13 13 12 12 12 12 13 13 14 14 15 15 15 15 14 13 11 9 8 7 8 8 17 18 16 16 16 16 16 16 16
20 20 21 20 19 18 18 17 17 16 15 14 13 13 12 12 12 12 13 13 13 14 15 15 15 14 13 11 9 7 4 4 4 12 17 17 15 15 15 15 15 15 15
19 19 20 20 19 18 18 17 16 15 15 14 13 12 12 12 12 12 13 13 13 14 14 14 14 13 12 10 7 4 2 1 5 15 17 16 15 15 15 15 14 14 14
19 19 19 19 19 18 17 16 16 15 14 14 13 12 12 12 12 12 13 13 13 13 14 14 13 12 11 8 5 2 2 3 10 16 17 16 15 15 14 14 14 14 13
19 18 17 18 17 17 17 16 15 15 14 13 13 12 12 13 13 13 12 13 13 13 13 13 12 12 10 7 3 1 3 5 5 15 17 15 14 14 14 13 13 13 13
18 17 16 17 17 16 15 15 15 15 14 13 13 13 13 13 13 13 13 12 12 12 12 12 12 11 9 6 3 2 4 5 4 16 16 15 15 14 13 13 13 13 12
15 15 15 16 15 16 16 16 14 14 13 13 12 13 13 12 12 12 13 13 12 12 12 11 11 10 9 6 4 3 5 2 8 15 16 17 15 13 12 12 12 12 12
15 14 12 16 15 15 14 15 13 12 12 11 11 12 9 8 10 12 14 13 12 11 11 10 10 10 9 7 6 5 5 3 9 14 15 18 15 13 12 12 11 11 11
14 12 12 13 12 11 10 11 9 9 10 9 10 10 9 10 11 12 10 10 10 11 10 10 10 9 8 5 5 5 3 4 9 14 15 17 15 13 12 11 11 10 10
12 11 11 10 9 8 10 8 8 7 7 7 9 10 8 4 5 8 7 9 9 9 8 9 7 6 5 5 5 2 2 6 11 13 14 15 14 12 11 11 10 10 9
11 11 11 9 8 7 6 6 7 6 7 7 9 7 8 5 4 5 4 5 7 8 7 5 4 5 4 3 2 4 3 6 12 14 13 15 14 12 11 10 10 10 9
11 10 9 9 9 7 5 3 4 6 7 8 8 9 7 6 5 4 4 3 3 5 5 4 4 4 2 2 2 3 3 5 10 14 14 13 13 12 11 10 10 10 9
11 11 10 10 9 8 7 5 5 6 8 6 7 9 7 7 7 5 4 3 3 5 5 3 4 4 4 3 3 3 3 3 6 10 13 13 13 12 12 11 11 10 10
11 11 11 12 11 9 7 5 4 5 6 5 7 9 7 8 8 5 4 3 4 6 3 2 3 3 3 3 4 3 3 3 4 6 9 12 13 13 13 13 12 11 11
12 12 10 10 12 10 8 5 3 3 4 5 7 7 7 8 8 4 2 3 4 3 3 3 3 2 2 3 4 4 3 3 3 5 6 9 11 13 14 14 14 13 12
12 12 11 10 11 9 7 5 3 4 4 5 5 6 8 8 8 5 4 4 4 3 3 2 3 2 2 1 2 4 3 4 4 4 4 7 10 12 14 15 15 14 15
12 12 11 11 10 8 7 6 5 5 4 4 5 8 8 7 7 4 3 4 2 3 4 4 3 4 2 2 1 2 2 4 4 4 3 3 6 8 11 15 15 14 14
13 12 11 10 11 10 7 5 5 5 4 5 4 6 8 8 8 7 4 4 3 3 3 2 1 1 3 4 2 1 1 1 2 5 4 5 5 6 8 12 13 14 13
12 13 12 11 10 10 9 6 5 3 3 4 5 5 6 8 7 4 6 4 4 4 4 4 4 3 2 2 2 2 1 2 2 2 4 4 4 4 4 7 11 13 13
12 12 11 11 10 10 9 9 9 7 6 5 5 5 6 7 7 6 6 4 3 3 5 5 5 3 3 2 2 2 1 2 1 1 2 3 6 6 5 5 7 11 12
12 12 11 10 10 10 9 10 9 7 6 5 5 7 6 5 6 7 6 5 4 3 4 4 3 2 2 3 2 2 3 2 2 2 2 2 3 4 5 4 3 7 11
11 11 11 11 10 10 10 9 9 8 7 6 6 7 6 5 5 6 6 5 5 4 3 3 3 3 2 2 2 1 1 2 2 2 2 3 3 3 4 3 3 4 8
Wind_Direction
125 127 127 125 127 129 129 127 122 118 113 109 105 101 97 95 94 93 93 94 95 96 98 98 97 96 94 92 91 93 95 96 96 96 95 94 92 93 98 103 98 96 99
124 128 127 126 126 128 129 127 124 121 117 114 110 106 103 100 98 97 98 96 97 97 99 100 100 100 98 97 98 100 102 104 105 104 100 93 90 89 90 95 97 102 101
124 129 129 126 126 126 127 127 125 123 120 118 115 112 108 105 103 102 100 100 99 101 102 103 103 102 102 102 104 107 111 114 117 118 109 98 91 88 91 96 101 101 101
128 134 131 129 127 127 127 128 127 124 123 122 119 116 112 110 108 106 104 103 103 105 105 106 105 105 105 105 108 113 117 121 126 129 109 102 96 94 95 99 103 103 103
129 129 130 132 131 130 129 129 129 127 126 125 122 119 116 114 112 109 106 106 107 108 108 108 107 107 108 109 111 115 119 121 131 110 92 92 95 99 99 100 103 103 104
129 129 134 134 133 132 131 131 131 131 130 127 125 123 120 118 115 111 108 109 109 109 110 111 110 110 111 112 116 118 117 120 123 105 102 102 102 103 104 104 104 104 104
132 131 136 136 136 135 134 134 133 132 131 129 128 126 123 120 116 114 113 112 112 112 113 114 114 114 114 117 121 123 106 92 113 105 102 102 107 109 108 108 108 107 107
130 132 136 138 138 138 138 136 135 134 133 133 131 128 125 122 120 118 117 116 116 116 117 117 117 118 119 121 129 139 324 324 110 109 106 107 113 112 111 112 111 109 108
132 136 142 144 142 141 141 140 139 138 137 136 134 132 130 128 126 123 121 122 121 122 122 123 123 124 126 132 151 231 303 329 95 117 112 114 118 118 115 115 115 113 111
134 139 148 149 146 146 143 143 143 142 142 141 140 140 138 135 133 133 128 126 126 127 129 129 129 131 136 146 176 250 306 324 116 114 113 121 124 124 121 119 119 118 116
137 143 155 150 151 151 147 144 145 144 145 146 148 149 150 150 145 145 129 132 133 134 136 139 141 144 150 166 198 248 280 256 101 107 114 126 128 128 127 125 122 122 121
147 152 156 152 157 156 149 146 152 155 154 163 155 161 171 151 141 131 135 138 141 143 145 152 158 164 175 179 195 230 254 171 111 111 123 132 131 131 132 132 129 128 127
155 151 151 154 157 153 141 152 160 156 159 169 161 168 164 145 139 136 143 148 154 160 165 163 178 192 194 180 175 215 227 105 107 115 132 135 136 138 139 140 139 137 136
153 152 150 153 150 145 147 153 153 152 161 159 163 174 159 155 143 145 151 162 170 177 172 178 191 180 159 160 170 175 95 90 108 119 137 140 142 146 147 149 149 149 147
152 153 149 151 138 131 134 156 160 150 159 154 158 182 162 154 140 137 134 160 183 166 172 186 167 136 142 158 155 117 99 113 129 132 141 148 150 153 156 159 159 158 159
155 153 146 144 138 135 144 168 144 150 155 156 163 165 171 145 126 135 141 172 173 148 149 150 133 129 150 135 106 115 124 120 120 135 145 154 158 163 168 171 170 171 172
156 155 151 151 151 149 160 179 160 157 162 163 156 149 160 144 139 146 150 181 146 127 125 136 143 151 163 159 142 127 121 117 128 133 149 162 168 174 177 180 180 181 185
155 157 166 166 156 157 170 191 166 169 154 151 148 145 155 148 149 155 159 162 139 141 159 157 162 160 167 149 146 157 139 136 140 148 162 168 170 177 185 189 189 190 193
156 157 168 157 156 167 174 179 181 156 149 148 143 150 161 157 153 160 142 128 163 156 171 186 155 166 163 157 165 166 169 164 165 184 177 173 173 172 178 190 195 198 201
154 158 166 165 160 166 171 171 178 162 162 154 153 157 165 165 163 168 150 154 186 171 161 118 126 111 116 196 217 162 173 170 179 183 190 181 178 183 179 180 190 203 209
157 160 165 169 166 167 170 169 171 171 178 170 165 159 163 173 170 169 154 156 193 157 156 156 155 164 188 191 172 156 196 188 185 181 191 179 184 190 177 176 189 195 201
163 164 166 172 171 173 173 170 171 172 180 174 164 153 166 177 180 173 167 173 177 145 151 165 157 185 207 191 185 151 201 207 220 198 183 191 186 185 186 190 193 189 195
168 171 175 175 173 178 171 167 165 155 173 168 160 163 180 183 184 180 167 186 176 175 170 188 185 202 228 206 188 177 171 193 208 214 201 184 180 183 195 195 195 192 198
173 173 173 174 176 174 172 171 170 176 181 179 169 169 186 188 182 184 175 178 177 185 167 193 189 197 202 228 199 196 164 122 151 191 233 193 189 191 205 211 201 190 199
172 170 170 170 173 175 178 177 180 185 185 184 171 169 183 188 193 188 176 176 190 205 173 176 148 195 215 229 226 199 190 181 216 189 206 206 206 197 196 209 198 187 196
168 167 169 170 173 176 182 185 187 188 183 182 180 176 185 184 194 195 181 181 190 201 171 160 159 194 232 265 284 263 197 191 222 214 204 208 211 210 189 185 197 197 192
Height
1503 1505 1507 1510 1512 1515 1517 1519 1521 1523 1525 1527 1528 1530 1531 1532 1534 1535 1536 1537 1539 1540 1541 1542 1543 1544 1546 1547 1548 1549 1550 1551 1552 1553 1554 1555 1556 1557 1558 1560 1561 1561 1562
1502 1505 1508 1511 1513 1516 1519 1521 1523 1525 1527 1529 1530 1532 1533 1535 1536 1537 1538 1539 1541 1542 1543 1544 1545 1546 1547 1548 1550 1551 1552 1553 1554 1555 1556 1557 1559 1560 1561 1562 1563 1564 1565
1502 1506 1509 1512 1515 1517 1520 1522 1524 1527 1528 1530 1532 1534 1535 1536 1538 1539 1540 1541 1542 1544 1545 1546 1547 1548 1549 1551 1552 1553 1554 1555 1557 1558 1559 1560 1561 1562 1563 1565 1566 1566 1567
1503 1507 1510 1513 1516 1518 1521 1524 1526 1528 1530 1532 1534 1535 1537 1538 1540 1541 1542 1543 1544 1545 1546 1548 1549 1550 1551 1553 1554 1556 1557 1558 1559 1560 1562 1563 1563 1565 1566 1567 1568 1569 1569
1505 1508 1511 1514 1517 1519 1522 1525 1527 1530 1532 1534 1535 1537 1539 1540 1541 1543 1544 1545 1546 1547 1548 1550 1551 1552 1554 1555 1556 1558 1559 1560 1561 1563 1564 1565 1565 1567 1568 1569 1570 1571 1572
1507 1509 1512 1515 1518 1521 1523 1526 1528 1531 1533 1535 1537 1538 1540 1542 1543 1544 1545 1547 1548 1549 1550 1552 1553 1554 1556 1557 1559 1560 1561 1563 1564 1566 1566 1567 1567 1569 1570 1571 1572 1573 1574
1508 1510 1513 1516 1519 1522 1524 1527 1529 1532 1534 1536 1538 1540 1542 1543 1545 1546 1547 1548 1550 1551 1552 1554 1555 1556 1558 1559 1561 1562 1563 1565 1566 1567 1568 1569 1570 1571 1572 1573 1574 1575 1576
1509 1511 1514 1517 1519 1522 1525 1528 1530 1533 1535 1537 1539 1541 1543 1544 1546 1547 1549 1550 1551 1553 1554 1556 1557 1558 1559 1561 1563 1564 1565 1566 1568 1569 1569 1570 1572 1573 1574 1575 1576 1577 1578
1509 1511 1514 1517 1520 1523 1526 1529 1531 1534 1536 1538 1540 1542 1544 1546 1547 1549 1550 1552 1553 1554 1556 1557 1559 1560 1561 1563 1564 1566 1567 1568 1570 1570 1571 1572 1573 1574 1576 1577 1578 1579 1580
1510 1512 1515 1518 1520 1523 1526 1529 1532 1534 1537 1539 1541 1543 1545 1547 1549 1550 1552 1553 1555 1556 1558 1559 1560 1562 1563 1564 1566 1567 1569 1570 1571 1572 1572 1573 1575 1576 1577 1578 1580 1581 1582
1511 1512 1516 1518 1521 1524 1527 1530 1532 1535 1538 1540 1542 1545 1546 1548 1550 1551 1553 1555 1556 1558 1559 1561 1562 1563 1565 1566 1568 1569 1570 1571 1572 1573 1573 1575 1576 1577 1578 1580 1581 1582 1583
1510 1513 1516 1518 1521 1525 1528 1530 1533 1536 1538 1541 1543 1545 1547 1550 1551 1553 1554 1556 1557 1559 1561 1562 1563 1565 1566 1568 1569 1570 1571 1572 1573 1574 1574 1575 1577 1578 1579 1581 1582 1583 1584
1510 1514 1517 1519 1522 1526 1528 1530 1533 1536 1539 1541 1544 1546 1548 1550 1552 1554 1555 1557 1559 1560 1562 1564 1565 1566 1567 1569 1570 1571 1572 1573 1573 1574 1575 1576 1578 1579 1580 1581 1583 1584 1585
1510 1513 1516 1518 1522 1525 1528 1531 1534 1537 1539 1542 1544 1547 1549 1551 1553 1555 1556 1557 1559 1561 1563 1565 1566 1567 1568 1570 1571 1572 1573 1574 1573 1575 1576 1577 1578 1579 1581 1582 1583 1585 1586
1509 1512 1514 1517 1521 1524 1528 1532 1535 1537 1540 1542 1544 1547 1550 1552 1554 1555 1557 1558 1560 1562 1564 1565 1567 1568 1569 1571 1572 1573 1574 1574 1574 1575 1576 1578 1579 1580 1581 1582 1583 1585 1586
1508 1511 1514 1517 1520 1523 1527 1531 1534 1537 1540 1542 1544 1547 1550 1552 1553 1555 1557 1558 1561 1562 1564 1565 1567 1568 1570 1571 1572 1573 1574 1575 1576 1576 1577 1578 1579 1580 1581 1582 1584 1585 1586
1506 1509 1512 1515 1519 1522 1527 1531 1534 1537 1540 1542 1544 1547 1549 1551 1553 1555 1557 1559 1561 1562 1564 1565 1567 1568 1570 1571 1572 1573 1574 1575 1576 1577 1577 1578 1579 1580 1581 1582 1583 1585 1586
1504 1507 1511 1515 1518 1522 1526 1530 1533 1537 1540 1542 1544 1546 1548 1550 1553 1555 1557 1559 1561 1562 1563 1565 1567 1568 1570 1571 1572 1573 1574 1575 1576 1577 1578 1578 1579 1580 1581 1582 1583 1584 1585
1502 1505 1508 1513 1517 1521 1525 1529 1532 1536 1539 1541 1544 1546 1548 1550 1552 1554 1556 1558 1560 1562 1563 1565 1566 1568 1569 1571 1572 1573 1574 1574 1576 1577 1578 1579 1579 1580 1581 1582 1583 1583 1584
1501 1504 1507 1512 1516 1520 1524 1528 1531 1535 1537 1540 1542 1545 1547 1549 1551 1553 1555 1557 1560 1561 1563 1564 1566 1567 1568 1570 1571 1572 1573 1574 1575 1576 1577 1578 1579 1579 1580 1581 1582 1583 1583
1500 1503 1507 1511 1515 1518 1522 1526 1529 1533 1536 1539 1541 1543 1546 1548 1550 1552 1555 1556 1558 1560 1562 1563 1565 1566 1568 1569 1571 1572 1573 1573 1574 1575 1576 1577 1578 1579 1580 1580 1581 1581 1582
1499 1503 1506 1509 1513 1517 1521 1524 1528 1531 1535 1538 1540 1542 1544 1547 1549 1552 1553 1555 1557 1559 1561 1562 1563 1565 1567 1568 1570 1571 1572 1574 1573 1574 1575 1576 1577 1578 1578 1579 1579 1580 1581
1499 1501 1504 1508 1512 1516 1520 1523 1527 1530 1533 1536 1539 1540 1543 1545 1548 1550 1552 1554 1556 1558 1559 1561 1562 1564 1566 1567 1569 1570 1570 1571 1572 1573 1574 1575 1576 1576 1577 1578 1578 1579 1579
1498 1501 1504 1507 1510 1514 1518 1521 1524 1527 1530 1534 1537 1539 1541 1544 1546 1548 1550 1552 1554 1556 1557 1559 1561 1563 1564 1566 1567 1568 1569 1570 1571 1572 1573 1573 1574 1575 1576 1577 1577 1577 1578
1497 1500 1502 1505 1509 1512 1516 1519 1522 1526 1529 1532 1535 1537 1539 1542 1544 1546 1548 1550 1552 1554 1556 1557 1559 1561 1563 1564 1566 1567 1568 1569 1570 1571 1571 1572 1573 1573 1574 1575 1576 1576 1576
1497 1499 1501 1504 1507 1511 1514 1518 1521 1524 1527 1530 1533 1535 1537 1540 1542 1544 1546 1548 1550 1552 1554 1556 1557 1559 1561 1563 1564 1565 1567 1568 1568 1569 1570 1570 1571 1572 1572 1573 1574 1574 1575